Regional Weather Roundup
Issued by NWS Newport/Morehead, NC

Current Version | Previous Version | Text Only | Print | Product List | Glossary On
Versions: 1 2 3 4 5 6 7 8 9 10 11 12 13 14 15 16 17 18 19 20 21 22 23 24 25 26 27 28 29 30 31 32 33 34 35 36 37 38 39 40 41 42 43
000
ASUS42 KMHX 240810
RWRMHX
WEATHER ROUNDUP FOR EASTERN NORTH CAROLINA
NATIONAL WEATHER SERVICE NEWPORT/MOREHEAD CITY NC
400 AM EDT THU APR 24 2014

NOTE: "FAIR" INDICATES FEW OR NO CLOUDS BELOW 12,000 FEET
WITH NO SIGNIFICANT WEATHER AND/OR OBSTRUCTIONS TO VISIBILITY

NCZ015>017-031-032-045>047-102-103-240900-
NORTH COAST

CITY           SKY/WX    TMP DP  RH WIND       PRES   REMARKS
EDENTON        CLEAR     49  36  61 N3        30.03R
ELIZABETH CITY CLEAR     50  34  54 N7        30.02R
KITTY HAWK     SUNNY     49  40  69 N6        30.01R
MANTEO         CLEAR     50  40  67 NE15G23   30.02R

$$

NCZ045>047-081-094-103-104-240900-
CENTRAL COAST

CITY           SKY/WX    TMP DP  RH WIND       PRES   REMARKS
FRISCO         CLEAR     55  42  61 NE9G16    30.01R
SWANQUARTER      N/A     46 N/A N/A VRB1      30.00R

$$

NCZ095-097-098-100-101-240900-
SOUTHERN COAST

CITY           SKY/WX    TMP DP  RH WIND       PRES   REMARKS
BEAUFORT       CLEAR     52  47  83 NE5       30.00R
CEDAR ISLAND     N/A     59 N/A N/A N7        30.03S
JACKSONVILLE   CLEAR     50  42  74 N5        30.01R
NEWPORT          N/A     46  46 100 CALM        N/A
PINEY ISLAND   SUNNY     58  49  72 NE6       30.00R
WILMINGTON     CLEAR     50  40  68 NE8       30.00R


$$

NCZ011>013-027>030-043-044-078>080-089-090>093-098-240900-
COASTAL PLAIN

CITY           SKY/WX    TMP DP  RH WIND       PRES   REMARKS
AHOSKIE        CLEAR     41  36  81 CALM      30.04R
CLINTON        CLEAR     49  40  71 CALM      30.03R
ELIZABETHTOWN  CLEAR     48  39  70 CALM      30.01R
GOLDSBORO      CLEAR     51  37  60 NE6       30.01R
GREENVILLE     CLEAR     43  39  87 CALM      30.05R
HAVELOCK       CLEAR     50  45  83 CALM      30.02R
KENANSVILLE    CLEAR     49  37  63 CALM      30.03R
KINSTON        CLEAR     48  38  68 NE3       30.04R
NEW BERN       CLEAR     48  43  82 CALM      30.03R
RICHLANDS      CLEAR     48  46  93 N5        30.02R
ROANOKE RAPIDS NOT AVBL
ROCKY MOUNT    CLEAR     44  35  70 CALM      30.04R
WASHINGTON     CLEAR     47  39  75 CALM      30.03S
WHITEVILLE     CLEAR     53  40  62 N6        29.99S

$$

AMZ130-135-150-152-154-156-158-170-250-252-270-ANZ085-086-088-633-658-670-240900-
MARINE OBSERVATIONS

STATION/POSITION TIME  TEMP    WIND        PRES    WAVE   SWELL
                       AIR SEA DIR/SP/G            HT/PER HT/PER
                 (UTC) (F)     (DEG/KT/KT) (MB)    (FT/S) (FT/S)
CHESAPEAKE LIGHT 0700   50     360/ 23/ 24 1015.9
BUOY 44014       0800   49 49  350/ 17/ 23 1014.9    6/ 6
DUCK             0800   51 51   10/ 16/ 19 1014.9
2E DUCK          0800      50                N/A     4/ 5   2/14
OREGON INLET     0800   50 56  350/ 12/ 20 1016.1
BUOY 44095       0800      50                N/A     5/ 6   2/14
HATTERAS CG      0800   57 61  360/ 19/ 22 1016.1
DIAMOND BUOY     0800   59 75  360/ 23/ 29 1015.0    5/ 8   2/14
CAPE LOOKOUT     0700   61      40/ 12/ 13 1015.2
BEAUFORT LAB     0800   54 62   30/  5/  6 1015.0
30 SE NEW RIVER  0800   63 69   30/ 14/ 17 1015.2    2/ 8   2/ 8
5 SE WRIGHTSVILL 0700   63 62   10/ 12/ 14 1014.6
FRYING PAN BUOY  0800   68 68   60/  8/ 10 1014.2    3/ 8   2/ 8
BUOY 41001       NOT AVBL
BUOY 41002       NOT AVBL
BUOY 41004       0800   68 71   60/ 12/ 12 1013.1    2/ 8   2/ 8

$$



USA.gov is the U.S. government's official web portal to all federal, state and local government web resources and services.